DW4221 Weather Reports


time (UTC)temp
C
wind
direction
speed
KPH
gust
KPH
rain 1hr
cm
rain 24hr
cm
rain mn
cm
humidity
%
barometer
mb
20260903041558 13 0 0.0 0.0 0.00 0.00 0.00 92 1015.6
20260903040112 14 0 0.0 0.0 0.00 0.00 0.00 92 1015.3
20260903034551 14 0 0.0 0.0 0.00 0.00 0.00 92 1015.3
20260903033102 15 0 0.0 0.0 0.00 0.00 0.00 92 1015.3
20260903031554 15 0 0.0 0.0 0.00 0.00 0.00 91 1015.2
20260903030055 15 0 0.0 0.0 0.00 0.00 0.00 89 1015.2
20260903024551 16 0 0.0 0.0 0.00 0.00 0.00 89 1015.1
20260903023109 16 0 0.0 0.0 0.00 0.00 0.00 87 1015.3
20260903021605 17 0 0.0 0.0 0.00 0.00 0.00 86 1015.2
20260903020055 17 0 0.0 0.0 0.00 0.00 0.00 85 1014.9
20260903014609 17 0 0.0 0.0 0.00 0.00 0.00 84 1014.8
20260903013107 18 0 0.0 0.0 0.00 0.00 0.00 82 1014.6
20260903011555 19 0 0.0 0.0 0.00 0.00 0.00 79 1014.5
20260903004603 20 0 0.0 0.0 0.00 0.00 0.00 73 1014.5
20260903003107 21 0 0.0 0.0 0.00 0.00 0.00 69 1014.6
20260903001625 22 0 0.0 6.4 0.00 0.00 0.00 65 1014.4
20260903000103 23 10 1.6 6.4 0.00 0.00 0.00 62 1014.4
20260902234626 23 0 0.0 8.0 0.00 0.00 0.00 60 1014.3
20260902233105 23 0 1.6 6.4 0.00 0.00 0.00 61 1014.3
20260902231614 23 0 1.6 6.4 0.00 0.00 0.00 61 1014.4
20260902230115 23 0 0.0 3.2 0.00 0.00 0.00 61 1014.3
20260902224551 23 0 0.0 4.8 0.00 0.00 0.00 62 1014.4
20260902223059 24 0 0.0 6.4 0.00 0.00 0.00 60 1014.2
20260902221555 24 355 0.0 8.0 0.00 0.00 0.00 57 1014.1
20260902220100 24 0 0.0 6.4 0.00 0.00 0.00 56 1014.0
20260902214613 24 5 1.6 14.5 0.00 0.00 0.00 55 1014.0
20260902213059 25 24 1.6 16.1 0.00 0.00 0.00 54 1014.0
20260902211606 25 20 3.2 9.7 0.00 0.00 0.00 54 1014.0
20260902210103 25 0 0.0 4.8 0.00 0.00 0.00 55 1014.0
20260902204554 25 0 0.0 8.0 0.00 0.00 0.00 53 1014.1
20260902203058 25 245 0.0 12.9 0.00 0.00 0.00 57 1014.1
20260902201554 25 0 1.6 16.1 0.00 0.00 0.00 55 1014.3
20260902194602 24 114 0.0 8.0 0.00 0.00 0.00 56 1014.4
20260902193058 25 346 4.8 14.5 0.00 0.00 0.00 54 1014.5
20260902191605 24 315 0.0 8.0 0.00 0.00 0.00 58 1014.5
20260902190106 24 0 1.6 11.3 0.00 0.00 0.00 59 1014.8
20260902184601 24 355 1.6 9.7 0.00 0.00 0.00 58 1014.8
20260902183059 24 45 3.2 11.3 0.00 0.00 0.00 57 1014.9
20260902181558 23 240 0.0 8.0 0.00 0.00 0.00 61 1015.0
20260902180103 23 258 1.6 12.9 0.00 0.00 0.00 61 1014.8
20260902174608 23 0 0.0 12.9 0.00 0.00 0.00 61 1014.9
20260902173105 23 17 0.0 14.5 0.00 0.00 0.00 61 1015.1
20260902171605 22 234 0.0 9.7 0.00 0.00 0.00 66 1015.2
20260902170054 23 0 3.2 14.5 0.00 0.00 0.00 65 1015.4
20260902164606 22 0 3.2 12.9 0.00 0.00 0.00 66 1015.3
20260902163101 22 287 1.6 9.7 0.00 0.00 0.00 67 1015.3
20260902161603 22 0 1.6 17.7 0.00 0.00 0.00 67 1015.2
20260902154602 22 11 3.2 12.9 0.00 0.00 0.00 68 1014.9
20260902153055 22 314 1.6 11.3 0.00 0.00 0.00 69 1015.2
20260902151556 21 57 1.6 6.4 0.00 0.00 0.00 69 1015.1
20260902150052 21 0 0.0 9.7 0.00 0.00 0.00 73 1015.1
20260902144613 20 0 0.0 0.0 0.00 0.00 0.00 77 1015.2
20260902143057 18 0 0.0 0.0 0.00 0.00 0.00 83 1015.4
20260902141602 18 0 0.0 0.0 0.00 0.00 0.00 86 1015.8
20260902140100 18 0 0.0 0.0 0.00 0.00 0.00 87 1015.7
20260902134601 16 0 0.0 0.0 0.00 0.00 0.00 96 1015.6
20260902133056 14 0 0.0 0.0 0.00 0.00 0.00 99 1015.5
20260902131554 13 0 0.0 0.0 0.00 0.00 0.00 98 1015.7
20260902130052 12 0 0.0 0.0 0.00 0.00 0.00 99 1015.6
20260902124604 11 0 0.0 0.0 0.00 0.00 0.00 98 1015.3
20260902123103 11 0 0.0 0.0 0.00 0.00 0.00 98 1015.1
20260902121613 11 0 0.0 0.0 0.00 0.00 0.00 98 1015.0
20260902120108 11 0 0.0 0.0 0.00 0.00 0.00 97 1015.0
20260902114619 11 0 0.0 0.0 0.00 0.00 0.00 97 1014.8
20260902113104 11 0 0.0 0.0 0.00 0.00 0.00 96 1014.7
20260902111605 11 0 0.0 0.0 0.00 0.00 0.00 96 1014.7
20260902110110 12 0 0.0 1.6 0.00 0.00 0.00 97 1014.5
20260902104619 11 0 0.0 0.0 0.00 0.00 0.00 97 1014.7
20260902103116 11 0 0.0 0.0 0.00 0.00 0.00 96 1014.6
20260902101601 11 0 0.0 0.0 0.00 0.00 0.00 97 1014.9
20260902100101 12 0 0.0 0.0 0.00 0.00 0.00 97 1015.0
20260902094600 12 0 0.0 0.0 0.00 0.00 0.00 97 1015.0
20260902093111 12 0 0.0 3.2 0.00 0.00 0.00 97 1014.6
20260902091601 12 0 0.0 0.0 0.00 0.00 0.00 96 1014.5
20260902090101 12 0 0.0 0.0 0.00 0.00 0.00 96 1014.5
20260902084552 12 0 0.0 0.0 0.00 0.00 0.00 96 1014.6
20260902083101 12 0 0.0 0.0 0.00 0.00 0.00 96 1014.4
20260902081559 12 0 0.0 0.0 0.00 0.00 0.00 96 1014.3
20260902080054 12 0 0.0 0.0 0.00 0.00 0.00 95 1014.3
20260902074606 13 0 0.0 0.0 0.00 0.00 0.00 95 1014.2
20260902073107 13 0 0.0 0.0 0.00 0.00 0.00 95 1014.2
20260902071556 13 0 0.0 0.0 0.00 0.00 0.00 95 1014.4
20260902070107 13 0 0.0 0.0 0.00 0.00 0.00 96 1014.3
20260902064551 13 0 0.0 0.0 0.00 0.00 0.00 95 1014.4
20260902063102 13 0 0.0 0.0 0.00 0.00 0.00 95 1014.4
20260902061604 13 0 0.0 0.0 0.00 0.00 0.00 95 1014.4
20260902060116 13 0 0.0 0.0 0.00 0.00 0.00 95 1014.4
20260902054603 13 0 0.0 0.0 0.00 0.00 0.00 95 1014.3
20260902053106 13 0 0.0 0.0 0.00 0.00 0.00 95 1014.5
20260902051606 13 0 0.0 0.0 0.00 0.00 0.00 95 1014.6
20260902050055 13 0 0.0 0.0 0.00 0.00 0.00 94 1015.0
20260902044604 13 0 0.0 0.0 0.00 0.00 0.00 94 1015.0
20260902043106 13 0 0.0 0.0 0.00 0.00 0.00 94 1014.8